GW4823 Weather Reports


time (UTC)temp
C
wind
direction
speed
KPH
gust
KPH
rain 1hr
cm
rain 24hr
cm
rain mn
cm
humidity
%
barometer
mb
20260504151010 18 257 8.0 19.3 0.00 0.00 0.00 42 1013.1
20260504150519 18 211 4.8 14.5 0.00 0.00 0.00 41 1013.1
20260504141017 16 260 6.4 14.5 0.00 0.00 0.00 51 1013.3
20260504140513 16 248 4.8 14.5 0.00 0.00 0.00 52 1013.3
20260504130511 13 221 3.2 12.9 0.00 0.00 0.00 61 1013.8
20260504110512 1 0 0.0 0.0 0.00 0.00 0.00 94 1014.5
20260504100512 0 0 0.0 0.0 0.00 0.00 0.00 92 1014.3
20260504081529 1 0 0.0 0.0 0.00 0.00 0.00 91 1014.4
20260504081016 1 0 0.0 0.0 0.00 0.00 0.00 90 1014.4
20260504080514 1 0 0.0 0.0 0.00 0.00 0.00 90 1014.3
20260504050512 2 0 0.0 0.0 0.00 0.00 0.00 85 1014.1
20260504045515 2 0 0.0 0.0 0.00 0.00 0.00 85 1014.1
20260504045013 2 0 0.0 0.0 0.00 0.00 0.00 85 1014.1
20260504044535 3 0 0.0 0.0 0.00 0.00 0.00 86 1014.1
20260504044013 3 0 0.0 0.0 0.00 0.00 0.00 85 1014.1
20260504043522 3 0 0.0 0.0 0.00 0.00 0.00 84 1014.1
20260504043036 3 0 0.0 0.0 0.00 0.00 0.00 84 1014.1
20260504042512 3 0 0.0 0.0 0.00 0.00 0.00 84 1014.0
20260504042010 3 0 0.0 0.0 0.00 0.00 0.00 83 1014.0
20260504041531 3 0 0.0 0.0 0.00 0.00 0.00 83 1014.0
20260504041015 3 0 0.0 0.0 0.00 0.00 0.00 83 1014.0
20260504040511 3 0 0.0 0.0 0.00 0.00 0.00 83 1013.9
20260504040030 3 0 0.0 0.0 0.00 0.00 0.00 82 1013.7
20260504035514 3 0 0.0 0.0 0.00 0.00 0.00 82 1013.7
20260504035014 3 0 0.0 0.0 0.00 0.00 0.00 82 1013.6
20260504034530 3 0 0.0 0.0 0.00 0.00 0.00 82 1013.5
20260504034013 4 0 0.0 0.0 0.00 0.00 0.00 81 1013.6
20260504033513 4 0 0.0 0.0 0.00 0.00 0.00 81 1013.6
20260504033035 4 0 0.0 0.0 0.00 0.00 0.00 81 1013.5
20260504032514 4 0 0.0 0.0 0.00 0.00 0.00 80 1013.5
20260504032013 4 0 0.0 0.0 0.00 0.00 0.00 79 1013.4
20260504031531 4 0 0.0 0.0 0.00 0.00 0.00 79 1013.4
20260504031012 5 0 0.0 0.0 0.00 0.00 0.00 79 1013.4
20260504030511 5 0 0.0 0.0 0.00 0.00 0.00 79 1013.4
20260504030031 5 0 0.0 0.0 0.00 0.00 0.00 78 1013.4
20260504025511 5 0 0.0 0.0 0.00 0.00 0.00 78 1013.4
20260504025011 5 0 0.0 0.0 0.00 0.00 0.00 77 1013.4
20260504024540 5 0 0.0 0.0 0.00 0.00 0.00 76 1013.5
20260504024014 5 0 0.0 0.0 0.00 0.00 0.00 75 1013.4
20260504023514 5 0 0.0 0.0 0.00 0.00 0.00 75 1013.5
20260504023034 6 0 0.0 0.0 0.00 0.00 0.00 75 1013.4
20260504022518 6 0 0.0 0.0 0.00 0.00 0.00 74 1013.5
20260504022014 6 0 0.0 0.0 0.00 0.00 0.00 73 1013.6
20260504021532 6 0 0.0 0.0 0.00 0.00 0.00 73 1013.5
20260504021013 6 0 0.0 0.0 0.00 0.00 0.00 73 1013.5
20260504020510 6 0 0.0 0.0 0.00 0.00 0.00 70 1013.4
20260504020030 6 0 0.0 0.0 0.00 0.00 0.00 71 1013.4
20260504015513 7 0 0.0 0.0 0.00 0.00 0.00 69 1013.3
20260504015015 7 0 0.0 0.0 0.00 0.00 0.00 69 1013.3
20260504014530 7 0 0.0 0.0 0.00 0.00 0.00 70 1013.3
20260504014017 7 0 0.0 0.0 0.00 0.00 0.00 67 1013.4
20260504013514 8 0 0.0 0.0 0.00 0.00 0.00 66 1013.3
20260504013036 8 0 0.0 0.0 0.00 0.00 0.00 65 1013.3
20260504012514 8 0 0.0 0.0 0.00 0.00 0.00 64 1013.3
20260504012015 8 0 0.0 0.0 0.00 0.00 0.00 64 1013.3
20260504011530 9 0 0.0 0.0 0.00 0.00 0.00 64 1013.2
20260504011013 10 0 0.0 0.0 0.00 0.00 0.00 64 1013.2
20260504010514 10 0 0.0 0.0 0.00 0.00 0.00 61 1013.1
20260504010030 10 0 0.0 0.0 0.00 0.00 0.00 61 1013.1
20260504005514 10 0 0.0 0.0 0.00 0.00 0.00 60 1013.1
20260504005014 10 0 0.0 0.0 0.00 0.00 0.00 59 1013.0
20260504004530 11 0 0.0 0.0 0.00 0.00 0.00 57 1013.0
20260504004013 11 0 0.0 0.0 0.00 0.00 0.00 57 1012.9
20260504003513 11 0 0.0 0.0 0.00 0.00 0.00 56 1012.9
20260504003040 11 0 0.0 0.0 0.00 0.00 0.00 57 1012.7
20260504002513 11 0 0.0 0.0 0.00 0.00 0.00 53 1012.6
20260504002010 12 0 0.0 0.0 0.00 0.00 0.00 55 1012.5
20260504001529 12 0 0.0 0.0 0.00 0.00 0.00 52 1012.3
20260504001013 12 0 0.0 1.6 0.00 0.00 0.00 52 1012.3
20260504000511 12 0 0.0 6.4 0.00 0.00 0.00 50 1012.2
20260504000032 12 291 0.0 6.4 0.00 0.00 0.00 47 1012.2
20260503235511 13 291 0.0 3.2 0.00 0.00 0.00 45 1012.1
20260503235012 13 291 0.0 11.3 0.00 0.00 0.00 45 1012.1
20260503234530 13 291 4.8 11.3 0.00 0.00 0.00 43 1012.0
20260503234014 13 271 1.6 6.4 0.00 0.00 0.00 45 1012.0
20260503233514 13 271 1.6 6.4 0.00 0.00 0.00 43 1011.9
20260503233037 13 271 3.2 6.4 0.00 0.00 0.00 44 1011.9
20260503232514 14 271 3.2 6.4 0.00 0.00 0.00 42 1011.9
20260503232013 14 271 1.6 6.4 0.00 0.00 0.00 42 1011.9
20260503231530 14 271 3.2 12.9 0.00 0.00 0.00 44 1011.9
20260503231015 15 271 3.2 12.9 0.00 0.00 0.00 41 1011.9
20260503230510 15 281 3.2 9.7 0.00 0.00 0.00 41 1011.9
20260503230031 15 272 3.2 14.5 0.00 0.00 0.00 42 1011.7
20260503225512 15 241 4.8 14.5 0.00 0.00 0.00 39 1011.8
20260503225014 15 264 1.6 11.3 0.00 0.00 0.00 41 1011.8
20260503224531 15 264 3.2 11.3 0.00 0.00 0.00 42 1011.8
20260503224015 15 285 3.2 8.0 0.00 0.00 0.00 39 1011.7
20260503223516 15 221 3.2 8.0 0.00 0.00 0.00 38 1011.8
20260503223030 15 273 3.2 9.7 0.00 0.00 0.00 37 1011.8
20260503222513 15 263 3.2 12.9 0.00 0.00 0.00 36 1011.8
20260503222013 15 284 6.4 12.9 0.00 0.00 0.00 37 1011.8
20260503221535 15 275 4.8 14.5 0.00 0.00 0.00 36 1011.8
20260503221011 15 284 6.4 14.5 0.00 0.00 0.00 36 1011.8
20260503220514 16 273 6.4 12.9 0.00 0.00 0.00 35 1011.8
20260503220032 16 290 3.2 14.5 0.00 0.00 0.00 35 1011.8
20260503215514 16 302 6.4 14.5 0.00 0.00 0.00 36 1011.7
20260503215013 16 263 8.0 14.5 0.00 0.00 0.00 35 1011.8
20260503214532 16 302 6.4 12.9 0.00 0.00 0.00 35 1011.6
20260503214011 16 302 4.8 11.3 0.00 0.00 0.00 36 1011.7
20260503213513 15 196 1.6 14.5 0.00 0.00 0.00 37 1011.6
20260503213033 15 244 4.8 14.5 0.00 0.00 0.00 35 1011.7
20260503212515 16 274 4.8 12.9 0.00 0.00 0.00 34 1011.6
20260503212013 16 327 4.8 14.5 0.00 0.00 0.00 35 1011.6
20260503211531 16 244 3.2 14.5 0.00 0.00 0.00 35 1011.6
20260503211012 15 291 3.2 11.3 0.00 0.00 0.00 34 1011.5
20260503210515 15 267 1.6 11.3 0.00 0.00 0.00 36 1011.7
20260503210032 15 269 4.8 14.5 0.00 0.00 0.00 34 1011.7
20260503205512 15 306 6.4 16.1 0.00 0.00 0.00 32 1011.7
20260503205011 15 298 4.8 16.1 0.00 0.00 0.00 34 1011.8
20260503204530 15 275 9.7 16.1 0.00 0.00 0.00 35 1011.8
20260503204013 16 269 3.2 16.1 0.00 0.00 0.00 34 1011.7
20260503203515 16 277 8.0 16.1 0.00 0.00 0.00 37 1011.7
20260503203036 16 291 4.8 16.1 0.00 0.00 0.00 36 1011.9
20260503202511 15 295 4.8 16.1 0.00 0.00 0.00 37 1011.9
20260503202012 15 238 4.8 16.1 0.00 0.00 0.00 38 1011.9
20260503201530 15 305 6.4 19.3 0.00 0.00 0.00 36 1012.1
20260503201014 15 265 8.0 19.3 0.00 0.00 0.00 35 1012.1
20260503200511 15 266 3.2 11.3 0.00 0.00 0.00 37 1012.1
20260503200031 15 304 4.8 12.9 0.00 0.00 0.00 36 1012.2
20260503195512 15 286 4.8 17.7 0.00 0.00 0.00 36 1012.2
20260503195010 15 269 9.7 20.9 0.00 0.00 0.00 37 1012.3
20260503194532 15 295 6.4 20.9 0.00 0.00 0.00 36 1012.3
20260503194011 15 288 9.7 16.1 0.00 0.00 0.00 35 1012.4
20260503193516 15 352 3.2 19.3 0.00 0.00 0.00 39 1012.4
20260503193031 15 339 4.8 19.3 0.00 0.00 0.00 37 1012.3
20260503192512 15 256 8.0 19.3 0.00 0.00 0.00 39 1012.5
20260503192013 15 248 8.0 14.5 0.00 0.00 0.00 40 1012.6
20260503191531 14 286 6.4 17.7 0.00 0.00 0.00 42 1012.5
20260503191012 15 254 6.4 17.7 0.00 0.00 0.00 38 1012.5
20260503190514 14 277 6.4 17.7 0.00 0.00 0.00 40 1012.6
20260503190029 14 274 8.0 17.7 0.00 0.00 0.00 48 1012.7
20260503185512 13 296 8.0 17.7 0.00 0.00 0.00 41 1012.7
20260503185013 13 284 4.8 17.7 0.00 0.00 0.00 38 1012.8
20260503184534 14 251 4.8 17.7 0.00 0.00 0.00 43 1012.7
20260503184016 14 287 11.3 19.3 0.00 0.00 0.00 39 1012.8
20260503183515 13 13 9.7 22.5 0.00 0.00 0.00 38 1013.0
20260503183031 14 290 6.4 22.5 0.00 0.00 0.00 42 1012.8
20260503182515 14 261 8.0 17.7 0.00 0.00 0.00 35 1012.8
20260503182014 14 249 3.2 17.7 0.00 0.00 0.00 43 1012.9
20260503181532 14 283 8.0 22.5 0.00 0.00 0.00 37 1013.1
20260503181013 14 279 11.3 22.5 0.00 0.00 0.00 38 1013.1
20260503180515 14 285 6.4 24.1 0.00 0.00 0.00 40 1013.1
20260503180036 14 275 6.4 24.1 0.00 0.00 0.00 42 1013.1
20260503175515 13 5 6.4 17.7 0.00 0.00 0.00 39 1013.1
20260503175015 13 279 8.0 22.5 0.00 0.00 0.00 36 1013.1
20260503174533 13 269 8.0 22.5 0.00 0.00 0.00 41 1013.2
20260503174019 13 259 4.8 24.1 0.00 0.00 0.00 45 1013.1
20260503173513 13 271 9.7 24.1 0.00 0.00 0.00 36 1013.2
20260503173034 13 311 4.8 20.9 0.00 0.00 0.00 41 1013.4
20260503172519 13 295 8.0 20.9 0.00 0.00 0.00 43 1013.2
20260503172013 14 269 6.4 14.5 0.00 0.00 0.00 42 1013.2
20260503171537 13 210 4.8 16.1 0.00 0.00 0.00 45 1013.3
20260503171015 13 281 8.0 17.7 0.00 0.00 0.00 42 1013.3
20260503170516 13 350 6.4 20.9 0.00 0.00 0.00 42 1013.2